Hourly Data Report for October 03, 2015

All times are specified in Local Standard Time (LST). Add 1 hour to adjust for Daylight Saving Time where and when it is observed.

EUREKA CLIMATE
NUNAVUT

79°59'21.000" N
85°56'02.000" W
10.00 m
2401199
71613
NEK

Download Data

Hourly Data (October 2015)
Hourly Data Report for October 3, 2015
Temp Definition
°C
Dew Point Temp Definition
°C
Rel Hum Definition
%
Wind Dir Definition
10's deg

Wind Spd Definition
km/h
Visibility Definition
km
Stn Press Definition
kPa
Hmdx Definition


Wind Chill Definition


Weather Definition


TIME
00:00 -4.6 -5.7 92 16 23   99.89   -12 LegendNANA
01:00 -4.2 -5.7 89 15 20   99.89   -11 LegendNANA
02:00 -4.6 -6.0 90 9 11   99.97   -9 LegendNANA
03:00 -3.0 -6.2 78 18 19   99.98   -9 LegendNANA
04:00 -3.2 -6.3 79 12 9   100.03   -7 LegendNANA
05:00 -3.7 -6.1 83 18 21   100.08   -10 LegendNANA
06:00 -4.4 -6.2 87 14 11   100.13   -9 LegendNANA
07:00 -3.0 -5.5 83 13 21   100.17   -9 LegendNANA
08:00 -3.1 -6.2 79 13 17   100.22   -9 LegendNANA
09:00 -3.8 -6.1 84 16 23   100.19   -11 LegendNANA
10:00 -4.2 -5.7 89 17 32   100.19   -12 LegendNANA
11:00 -4.0 -5.9 87 17 15   100.32   -9 LegendNANA
12:00 -3.7 -5.3 89 15 23   100.35   -10 LegendNANA
13:00 -3.5 -5.0 90 17 33   100.37   -11 LegendNANA
14:00 -3.3 -5.0 88 16 38   100.40   -12 LegendNANA
15:00 -3.2 -4.5 91 16 33   100.44   -11 LegendNANA
16:00 -3.4 -4.4 93 16 36   100.43   -12 LegendNANA
17:00 -3.0 -4.7 88 17 40   100.46   -11 LegendNANA
18:00 -3.7 -5.1 90 16 32   100.48   -12 LegendNANA
19:00 -3.4 -4.3 93 17 42   100.47   -12 LegendNANA
20:00 -3.5 -4.3 94 16 37   100.50   -12 LegendNANA
21:00 -3.4 -3.9 96 16 38   100.48   -12 LegendNANA
22:00 -3.4 -3.9 97 17 41   100.46   -12 LegendNANA
23:00 -3.3 -3.9 96 16 32   100.52   -11 LegendNANA

Notes on Data Quality.

Legend

  • E = Estimated
  • M = Missing
  • NA = Not Available
  • ‡ = Partner data that is not subject to review by the National Climate Archives
Date modified: